Total_Precipitation_Accumulation
1.06 1.25 1.42 1.57 1.75 1.88 1.98 2.02 2.04 2.09 2.19 2.24 2.19 2.24 2.34 2.39 2.35 2.35 2.33 2.23 2.10 1.96 1.87 1.81 1.75 1.69 1.71 1.67 1.70 1.78 1.82 1.90 1.89 1.48 1.26 1.25 1.34 1.35 1.39 1.30 1.26 1.24 1.18
0.95 1.06 1.27 1.35 1.49 1.66 1.78 1.82 1.84 1.87 1.92 1.98 2.03 2.07 2.10 2.15 2.19 2.20 2.19 2.16 2.11 1.98 1.89 1.85 1.77 1.75 1.84 1.84 1.84 1.82 1.79 1.75 1.76 1.60 1.35 1.26 1.25 1.20 1.17 1.19 1.20 1.19 1.10
0.92 0.96 1.10 1.24 1.32 1.40 1.52 1.62 1.68 1.72 1.79 1.84 1.85 1.95 1.99 1.97 2.02 2.06 2.06 2.07 2.07 2.01 1.95 1.92 1.86 1.84 1.89 1.89 1.85 1.82 1.75 1.69 1.67 1.63 1.46 1.32 1.31 1.25 1.23 1.21 1.18 1.17 1.10
0.84 0.92 0.95 1.12 1.23 1.28 1.33 1.40 1.48 1.51 1.58 1.62 1.67 1.71 1.79 1.83 1.88 1.97 2.04 2.03 2.03 2.01 1.97 1.93 1.87 1.84 1.80 1.76 1.72 1.67 1.66 1.68 1.70 1.71 1.60 1.45 1.39 1.37 1.38 1.42 1.37 1.25 1.18
0.76 0.86 0.92 0.99 1.08 1.19 1.29 1.35 1.43 1.45 1.46 1.50 1.55 1.58 1.60 1.67 1.76 1.86 1.97 2.06 2.06 2.05 2.02 1.94 1.82 1.77 1.70 1.67 1.64 1.59 1.59 1.70 1.78 1.80 1.70 1.56 1.44 1.44 1.47 1.39 1.40 1.35 1.29
0.75 0.80 0.88 0.96 1.00 1.06 1.16 1.27 1.35 1.45 1.48 1.49 1.57 1.61 1.64 1.69 1.92 2.01 2.00 2.03 2.04 1.99 1.90 1.76 1.67 1.66 1.60 1.64 1.67 1.64 1.70 1.84 1.94 1.89 1.72 1.51 1.30 1.22 1.31 1.45 1.57 1.62 1.54
0.82 0.80 0.84 0.92 1.02 1.07 1.10 1.19 1.35 1.45 1.60 1.67 1.68 1.75 1.77 1.79 1.87 1.77 1.82 1.83 1.88 1.87 1.78 1.64 1.54 1.44 1.44 1.32 1.44 1.56 1.60 1.69 1.74 1.68 1.59 1.35 1.23 1.20 1.42 1.68 1.67 1.58 1.34
0.86 0.88 0.90 0.92 1.04 1.15 1.17 1.22 1.33 1.44 1.58 1.73 1.77 1.78 1.76 1.76 1.76 1.63 1.63 1.51 1.51 1.55 1.57 1.54 1.48 1.42 1.36 1.34 1.38 1.46 1.35 1.30 1.31 1.23 1.22 1.23 1.23 1.26 1.46 1.73 1.76 1.72 1.48
0.88 0.92 0.96 0.99 1.10 1.21 1.22 1.25 1.31 1.38 1.46 1.53 1.61 1.62 1.56 1.53 1.55 1.46 1.46 1.36 1.35 1.32 1.29 1.34 1.40 1.34 1.44 1.55 1.50 1.45 1.28 1.13 1.16 1.24 1.30 1.30 1.37 1.39 1.48 1.83 2.02 2.06 1.84
0.98 1.02 1.05 1.14 1.26 1.31 1.30 1.28 1.26 1.26 1.27 1.25 1.27 1.27 1.24 1.22 1.30 1.27 1.27 1.19 1.22 1.19 1.19 1.23 1.38 1.35 1.46 1.57 1.45 1.42 1.32 1.14 1.08 1.08 1.08 1.10 1.08 1.15 1.35 1.56 1.99 2.32 2.01
1.07 1.08 1.10 1.17 1.25 1.30 1.27 1.21 1.19 1.15 1.14 1.10 1.08 1.07 1.04 1.05 1.11 1.12 1.15 1.10 1.10 1.14 1.15 1.13 1.17 1.41 1.50 1.52 1.41 1.27 1.28 1.26 1.12 1.03 1.03 1.00 1.00 1.04 1.11 1.21 1.52 2.15 2.34
1.00 1.02 1.02 1.04 1.10 1.18 1.21 1.17 1.12 1.12 1.11 1.09 1.08 1.10 1.07 1.06 1.07 1.08 1.15 1.18 1.20 1.14 1.09 1.01 1.09 1.35 1.35 1.33 1.27 1.30 1.43 1.34 1.14 1.13 1.11 1.07 1.03 1.00 1.01 1.08 1.21 1.42 1.70
0.89 0.94 0.93 0.90 0.93 0.99 1.06 1.10 1.11 1.11 1.11 1.10 1.10 1.12 1.11 1.06 1.09 1.17 1.16 1.24 1.25 1.11 1.07 1.20 1.24 1.22 1.17 1.17 1.25 1.30 1.27 1.24 1.32 1.39 1.25 1.08 0.97 0.95 0.99 1.08 1.15 1.23 1.34
0.74 0.82 0.85 0.85 0.86 0.87 0.90 1.00 1.06 1.11 1.11 1.08 1.09 1.13 1.10 1.02 1.03 1.08 1.11 1.16 1.21 1.17 1.18 1.23 1.20 1.11 1.06 1.10 1.19 1.21 1.17 1.23 1.40 1.47 1.34 1.13 1.03 1.06 1.13 1.22 1.37 1.41 1.54
0.66 0.70 0.74 0.80 0.85 0.89 0.91 0.99 1.09 1.14 1.24 1.26 1.17 1.13 1.15 1.13 1.13 1.26 1.28 1.23 1.28 1.32 1.29 1.14 1.04 1.02 1.01 0.99 1.02 1.04 1.10 1.21 1.33 1.30 1.33 1.30 1.23 1.23 1.26 1.34 1.56 1.70 1.76
0.70 0.70 0.74 0.81 0.85 0.87 0.89 0.95 1.05 1.11 1.16 1.19 1.22 1.20 1.15 1.20 1.24 1.30 1.34 1.39 1.44 1.43 1.32 1.17 1.06 0.99 0.95 0.92 0.93 0.98 1.03 1.12 1.24 1.35 1.38 1.38 1.39 1.37 1.37 1.41 1.61 1.80 1.79
0.75 0.77 0.78 0.83 0.88 0.87 0.87 0.90 0.96 1.00 1.04 1.05 1.10 1.16 1.16 1.18 1.18 1.22 1.32 1.37 1.34 1.31 1.27 1.18 1.06 1.01 0.97 0.92 0.93 0.96 0.99 1.01 1.16 1.36 1.45 1.48 1.50 1.48 1.49 1.55 1.65 1.75 1.70
0.73 0.79 0.82 0.86 0.91 0.90 0.88 0.89 0.90 0.93 0.95 0.97 1.02 1.09 1.13 1.16 1.20 1.24 1.29 1.30 1.28 1.19 1.12 1.11 1.07 1.02 1.02 1.03 1.04 1.07 1.07 1.07 1.17 1.31 1.39 1.46 1.55 1.63 1.63 1.62 1.66 1.70 1.66
0.71 0.74 0.78 0.85 0.90 0.94 0.93 0.91 0.91 0.89 0.90 0.93 0.95 1.05 1.14 1.15 1.20 1.26 1.22 1.14 1.11 1.06 1.02 1.00 0.99 1.02 1.07 1.12 1.14 1.16 1.21 1.26 1.31 1.45 1.47 1.49 1.57 1.70 1.67 1.57 1.56 1.53 1.48
0.66 0.76 0.82 0.86 0.88 0.89 0.93 0.95 0.94 0.91 0.89 0.88 0.89 0.98 1.09 1.17 1.16 1.12 1.08 1.04 1.05 1.05 1.00 1.00 0.99 1.00 1.08 1.15 1.20 1.24 1.30 1.32 1.36 1.47 1.53 1.56 1.61 1.70 1.70 1.55 1.45 1.45 1.36
0.67 0.71 0.79 0.83 0.87 0.89 0.92 0.95 0.95 0.93 0.92 0.91 0.89 0.97 1.18 1.18 1.07 0.97 0.97 1.01 1.05 1.06 1.05 1.04 1.03 1.06 1.13 1.20 1.26 1.29 1.33 1.35 1.40 1.52 1.58 1.56 1.57 1.57 1.46 1.44 1.41 1.40 1.42
0.69 0.71 0.71 0.77 0.85 0.91 0.96 0.98 0.98 0.95 0.91 0.90 0.90 0.94 1.08 1.03 1.00 0.99 0.99 0.98 0.98 1.00 1.02 1.10 1.11 1.10 1.22 1.39 1.52 1.57 1.47 1.38 1.39 1.51 1.54 1.44 1.40 1.41 1.40 1.43 1.42 1.43 1.45
0.71 0.73 0.74 0.78 0.86 0.95 0.99 0.98 0.99 0.97 0.94 0.91 0.92 0.92 0.93 0.94 0.98 1.01 1.03 1.02 0.99 0.98 0.98 1.05 1.13 1.10 1.12 1.31 1.53 1.83 1.92 1.69 1.56 1.65 1.76 1.61 1.46 1.45 1.49 1.50 1.43 1.43 1.40
0.72 0.76 0.79 0.82 0.87 0.92 0.95 0.96 0.97 0.97 0.97 0.95 0.93 0.93 0.94 0.95 0.97 0.98 0.99 1.01 1.02 0.98 0.96 1.02 1.09 1.09 1.11 1.27 1.44 1.58 1.72 1.84 2.01 2.07 2.04 2.03 1.77 1.54 1.51 1.50 1.40 1.37 1.38
0.71 0.77 0.81 0.85 0.89 0.92 0.93 0.94 0.94 0.95 0.96 0.97 0.95 0.95 0.95 0.94 0.93 0.93 0.93 0.95 0.97 0.97 0.92 0.94 1.02 1.07 1.11 1.22 1.35 1.45 1.58 1.74 1.93 2.03 1.96 1.89 1.71 1.52 1.49 1.47 1.40 1.37 1.38
0.71 0.75 0.79 0.82 0.87 0.91 0.94 0.96 0.96 0.97 0.99 0.99 0.98 0.97 0.97 0.95 0.90 0.88 0.88 0.90 0.92 0.91 0.88 0.88 0.92 1.00 1.09 1.20 1.23 1.35 1.48 1.46 1.43 1.46 1.66 1.80 1.69 1.48 1.45 1.52 1.41 1.38 1.37